Location: Nairn
(57.5833°N, 3.8667°W)
Time: 15:32:14
(UTC+00:00)

S-56A Canister/Altair - Pass Details

Date: 26 November 2020
Orbit: 633 x 2499 km, 38.9° (Epoch: 19 January)

Event Time Altitude Azimuth Distance (km) Brightness Sun altitude
Rises 23:00:05 0° 242° (WSW) 4,488 - -51.8°
Reaches altitude 10° 23:04:59 10° 222° (SW) 3,090 - -52.1°
Maximum altitude 23:08:39 15° 191° (S) 2,462 - -52.2°
Drops below altitude 10° 23:11:46 10° 159° (SSE) 2,537 - -52.4°
Sets 23:15:08 0° 135° (SE) 3,234 - -52.5°
